MSC427 HECA-OEGS

Flight info

Callsign MSC427
Flight time N/A
Altitude 37000
Route HECA/23C CVO L315 HGD M872 WEJ L604 GAS
Aircraft A320/M-SDE3FGHIRWY/LB1

Departure

Time 2026-05-04 12:05
Airport Cairo International Airport (HECA)

Arrival

Time N/A
Airport Prince Naif bin Abdulaziz International Airport (OEGS)
Time Latitude Longitude Altitude Speed Heading
2026-05-04 12:00 30.12177 31.42500 374 ft 12 kts 148°
2026-05-04 12:00 30.12053 31.42623 372 ft 34 kts 140°
2026-05-04 12:00 30.11839 31.42830 374 ft 42 kts 140°
2026-05-04 12:00 30.11617 31.43051 374 ft 43 kts 139°
2026-05-04 12:01 30.11387 31.43277 374 ft 44 kts 140°
2026-05-04 12:01 30.11186 31.43479 374 ft 19 kts 136°
2026-05-04 12:02 30.11906 31.44520 374 ft 36 kts 50°
2026-05-04 12:03 30.12019 31.44720 374 ft 19 kts 102°
2026-05-04 12:03 30.11970 31.44776 374 ft 15 kts 143°
2026-05-04 12:03 30.11919 31.44818 372 ft 0 kts 145°
2026-05-04 12:03 30.11919 31.44813 371 ft 0 kts 226°
2026-05-04 12:04 30.11916 31.44809 371 ft 5 kts 226°
2026-05-04 12:04 30.11835 31.44712 371 ft 43 kts 227°
2026-05-04 12:04 30.11473 31.44241 371 ft 110 kts 228°
2026-05-04 12:05 30.11070 31.43696 375 ft 146 kts 232°
2026-05-04 12:05 30.10786 31.43314 387 ft 162 kts 239°
2026-05-04 12:05 30.10044 31.42318 897 ft 169 kts 236°
2026-05-04 12:05 30.09255 31.41262 1505 ft 178 kts 234°
2026-05-04 12:06 30.08421 31.40161 2184 ft 185 kts 233°
2026-05-04 12:06 30.07330 31.39227 2613 ft 213 kts 203°
2026-05-04 12:06 30.05736 31.39304 2917 ft 252 kts 161°
2026-05-04 12:06 30.04117 31.40333 3422 ft 277 kts 147°
2026-05-04 12:07 30.02576 31.41664 4331 ft 282 kts 143°
2026-05-04 12:07 30.01042 31.43109 5269 ft 287 kts 142°
2026-05-04 12:07 29.99478 31.44589 6171 ft 293 kts 142°
2026-05-04 12:07 29.97883 31.46067 7087 ft 295 kts 143°
2026-05-04 12:08 29.96253 31.47538 8007 ft 298 kts 145°
2026-05-04 12:08 29.94595 31.48999 8869 ft 303 kts 146°
2026-05-04 12:08 29.92893 31.50479 9724 ft 308 kts 147°
2026-05-04 12:08 29.91157 31.51979 10494 ft 314 kts 147°
2026-05-04 12:09 29.89390 31.53501 11224 ft 321 kts 148°
2026-05-04 12:09 29.87584 31.55056 11953 ft 327 kts 149°
2026-05-04 12:09 29.85749 31.56634 12706 ft 332 kts 149°
2026-05-04 12:09 29.83901 31.58221 13451 ft 338 kts 149°
2026-05-04 12:10 29.82005 31.59849 14154 ft 342 kts 150°
2026-05-04 12:10 29.80083 31.61503 14856 ft 346 kts 150°
2026-05-04 12:10 29.78147 31.63170 15565 ft 349 kts 150°
2026-05-04 12:10 29.76198 31.64848 16286 ft 352 kts 150°
2026-05-04 12:11 29.74224 31.66545 16955 ft 355 kts 151°
2026-05-04 12:11 29.72234 31.68253 17636 ft 358 kts 151°
2026-05-04 12:11 29.70228 31.69972 18315 ft 361 kts 151°
2026-05-04 12:11 29.68202 31.71706 18907 ft 364 kts 152°
2026-05-04 12:12 29.66152 31.73461 19473 ft 368 kts 152°
2026-05-04 12:12 29.64086 31.75230 20027 ft 371 kts 151°
2026-05-04 12:12 29.62004 31.77014 20563 ft 375 kts 151°
2026-05-04 12:12 29.59925 31.78795 21100 ft 379 kts 152°
2026-05-04 12:13 29.57797 31.80614 21627 ft 382 kts 152°
2026-05-04 12:14 29.42433 31.93719 25200 ft 402 kts 152°
2026-05-04 12:15 29.40177 31.95635 25671 ft 404 kts 152°
2026-05-04 12:15 29.37913 31.97565 26133 ft 406 kts 152°
2026-05-04 12:15 29.35640 31.99507 26592 ft 409 kts 152°
2026-05-04 12:15 29.33353 32.01458 27041 ft 411 kts 152°
2026-05-04 12:16 29.31051 32.03416 27482 ft 413 kts 152°
2026-05-04 12:16 29.28735 32.05378 27924 ft 415 kts 152°
2026-05-04 12:16 29.26402 32.07353 28368 ft 418 kts 152°
2026-05-04 12:16 29.24062 32.09336 28819 ft 420 kts 153°
2026-05-04 12:17 29.21733 32.11308 29250 ft 422 kts 153°
2026-05-04 12:17 29.19365 32.13313 29675 ft 424 kts 153°
2026-05-04 12:17 29.16987 32.15327 30089 ft 426 kts 153°
2026-05-04 12:17 29.14594 32.17353 30437 ft 428 kts 153°
2026-05-04 12:18 29.12193 32.19385 30770 ft 430 kts 153°
2026-05-04 12:18 29.09778 32.21431 31105 ft 432 kts 153°
2026-05-04 12:18 29.07356 32.23481 31441 ft 434 kts 153°
2026-05-04 12:18 29.04920 32.25535 31774 ft 436 kts 153°
2026-05-04 12:19 29.02466 32.27599 32109 ft 439 kts 153°
2026-05-04 12:19 28.99999 32.29675 32422 ft 441 kts 153°
2026-05-04 12:19 28.97528 32.31756 32745 ft 443 kts 153°
2026-05-04 12:19 28.95039 32.33854 33065 ft 445 kts 153°
2026-05-04 12:20 28.92578 32.35929 33357 ft 446 kts 153°
2026-05-04 12:20 28.90074 32.38039 33696 ft 448 kts 153°
2026-05-04 12:20 28.87561 32.40154 33966 ft 450 kts 153°
2026-05-04 12:20 28.85033 32.42276 34211 ft 452 kts 153°
2026-05-04 12:21 28.82492 32.44406 34453 ft 454 kts 153°
2026-05-04 12:21 28.79946 32.46537 34701 ft 456 kts 153°
2026-05-04 12:21 28.77375 32.48685 34922 ft 458 kts 153°
2026-05-04 12:21 28.74806 32.50829 35150 ft 459 kts 153°
2026-05-04 12:22 28.72220 32.52989 35361 ft 461 kts 153°
2026-05-04 12:22 28.69626 32.55159 35572 ft 463 kts 153°
2026-05-04 12:22 28.67032 32.57334 35771 ft 464 kts 154°
2026-05-04 12:22 28.64421 32.59526 35938 ft 466 kts 153°
2026-05-04 12:23 28.61801 32.61718 36118 ft 467 kts 154°
2026-05-04 12:23 28.59211 32.63880 36312 ft 467 kts 154°
2026-05-04 12:23 28.56581 32.66073 36515 ft 468 kts 154°
2026-05-04 12:23 28.53947 32.68267 36652 ft 470 kts 153°
2026-05-04 12:24 28.51307 32.70467 36817 ft 471 kts 153°
2026-05-04 12:24 28.48661 32.72674 36987 ft 473 kts 154°
2026-05-04 12:24 28.43338 32.77108 37046 ft 474 kts 154°
2026-05-04 12:25 28.38017 32.81533 37045 ft 473 kts 154°
2026-05-04 12:25 28.32736 32.85916 37048 ft 473 kts 154°
2026-05-04 12:26 28.27407 32.90326 37053 ft 473 kts 154°
2026-05-04 12:26 28.22085 32.94720 37027 ft 474 kts 154°
2026-05-04 12:27 28.16734 32.99145 37042 ft 480 kts 154°
2026-05-04 12:27 28.11274 33.03639 37041 ft 490 kts 154°
2026-05-04 12:28 28.05701 33.08221 37036 ft 498 kts 153°
2026-05-04 12:28 28.00068 33.12868 37034 ft 500 kts 153°
2026-05-04 12:29 27.94477 33.17486 37030 ft 500 kts 154°
2026-05-04 12:29 27.88850 33.22121 37034 ft 500 kts 153°
2026-05-04 12:30 27.83210 33.26744 37013 ft 500 kts 153°
2026-05-04 12:30 27.77568 33.31354 37020 ft 501 kts 153°
2026-05-04 12:31 27.71926 33.35966 37019 ft 501 kts 153°
2026-05-04 12:31 27.66308 33.40559 37022 ft 501 kts 154°
2026-05-04 12:32 27.57820 33.47482 36984 ft 501 kts 153°
2026-05-04 12:33 27.52147 33.52095 36999 ft 502 kts 153°
2026-05-04 12:33 27.46471 33.56678 37010 ft 501 kts 154°
2026-05-04 12:34 27.40824 33.61198 37013 ft 501 kts 154°
2026-05-04 12:34 27.35141 33.65741 37014 ft 501 kts 154°
2026-05-04 12:35 27.29450 33.70303 37016 ft 501 kts 154°
2026-05-04 12:35 27.23771 33.74845 36967 ft 501 kts 154°
2026-05-04 12:36 27.18387 33.79928 36987 ft 521 kts 135°
2026-05-04 12:36 27.16444 33.83418 36991 ft 536 kts 120°
2026-05-04 12:36 27.15042 33.87276 36991 ft 540 kts 117°
2026-05-04 12:37 27.12286 33.95121 36991 ft 541 kts 117°
2026-05-04 12:37 27.09499 34.02984 36988 ft 541 kts 118°
2026-05-04 12:38 27.06693 34.10828 36992 ft 541 kts 118°
2026-05-04 12:38 27.03876 34.18656 36988 ft 541 kts 118°
2026-05-04 12:39 27.01061 34.26495 36996 ft 542 kts 118°
2026-05-04 12:39 26.98253 34.34339 36992 ft 542 kts 118°
2026-05-04 12:40 26.95451 34.42140 36987 ft 542 kts 118°
2026-05-04 12:40 26.92619 34.49984 36948 ft 542 kts 118°
2026-05-04 12:41 26.89779 34.57816 36970 ft 542 kts 118°
2026-05-04 12:41 26.86938 34.65657 36976 ft 542 kts 118°
2026-05-04 12:42 26.84124 34.73437 36983 ft 542 kts 118°
2026-05-04 12:42 26.81286 34.81254 36968 ft 541 kts 119°